Flag for U.S.A. Weather past 2 weeks in Sacramento, California, U.S.A.

Now
63 °F

Clear.


Feels Like: 63 °F
Forecast: 56 / 71 °F
Wind: 10 mph from Southwest

Location: Sacramento Executive Airport

Current Time: Oct 24, 2014 at 11:46:28 PM

Latest Report: Oct 24, 2014 at 10:53 PM


Visibility: 10 mi

Pressure: 29.89 "Hg

Humidity: 75%

Dew point: 55 °F

Location of SacramentoLocation

Historic Weather in Sacramento — Graph

°F

Sacramento temperature yesterday

Maximum temperature yesterday: 77 °F (at 4:53 PM)
Minimum temperature yesterday: 59 °F (at 4:53 AM)
Average temperature yesterday: 65 °F

Past Weeks' High & Low Weather Summary

 TemperatureHumidityPressure
High91 °F (Oct 12, 2:53 PM)100% (Oct 24, 8:03 AM)30.10 "Hg (Oct 24, 8:03 AM)
Low48 °F (Oct 21, 5:53 AM)10% (Oct 12, 2:53 PM)29.80 "Hg (Oct 14, 3:53 PM)
Average66 °F62%29.95 "Hg
* Reported Oct 9 9:53 PM — Oct 24 9:53 PM, Sacramento, Weather by CustomWeather, © 2014

Note: Actual official high and low records may vary slightly from our data, if they occured in-between our weather recording intervals... More about our weather records

Advertising

Sacramento weather history for previous 24 hours

 ConditionsComfort  
Time TempWeatherWind HumidityBarometerVisibility
9:53 PM
Oct 24
63 °FClear.9 mph78%29.89 "Hg10 mi
8:53 PM64 °FClear.12 mph73%29.88 "Hg10 mi
7:53 PM65 °FClear.10 mph70%29.87 "Hg10 mi
6:53 PM67 °FSunny.7 mph63%29.86 "Hg10 mi
5:53 PM73 °FSunny.13 mph50%29.84 "Hg10 mi
4:53 PM76 °FSunny.No wind45%29.85 "Hg10 mi
3:53 PM75 °FSunny.5 mph47%29.87 "Hg10 mi
2:53 PM75 °FSunny.8 mph45%29.88 "Hg10 mi
1:53 PM73 °FSunny.3 mph48%29.90 "Hg10 mi
12:53 PM71 °FSunny.3 mph53%29.93 "Hg10 mi
11:53 AM66 °FSunny.No wind63%29.96 "Hg10 mi
10:53 AM61 °FScattered clouds.No wind78%29.98 "Hg10 mi
9:53 AM55 °FFog.No wind96%29.99 "Hg5 mi
8:53 AM55 °FFog.No wind96%29.98 "Hg0 mi
8:03 AM54 °FFog.No wind100%29.98 "Hg0 mi
7:53 AM54 °FFog.No wind97%29.97 "Hg1 mi
6:53 AM52 °FFog.No wind93%29.97 "Hg0 mi
6:04 AM52 °FFog.No wind94%29.97 "Hg6 mi
5:53 AM52 °FFog.No wind93%29.97 "Hg1 mi
4:53 AM53 °FClear.No wind93%29.97 "Hg7 mi
3:53 AM55 °FClear.No wind93%29.97 "Hg10 mi
2:53 AM56 °FClear.5 mph90%29.98 "Hg10 mi
1:53 AM57 °FClear.6 mph90%29.99 "Hg10 mi
12:53 AM58 °FClear.8 mph87%30.00 "Hg10 mi
11:53 PM
Oct 23
59 °FClear.7 mph84%30.00 "Hg10 mi
Weather by CustomWeather, © 2014

See weather overviewHow to use our weather pages